Погода в Гремячеве

Россия / Калужская область     54°14′32″N   36°15′17″E
темп.,
°C
ветер,
м/с
пор.,
м/с
влажн.,
%
обл.,
%
осадки,
мм/ч
давл.,
гПа
погр.,
м
22 апреля, чт
чт2200:00+3ююз379281 0.0 1013182
03:00+3ю3109755 0.1 1014273
06:00+3ю4109652 0.1 1014270
09:00+6ююз51187100 0.1 1015496
12:00+13ююз586243 0.0 10151245
15:00+14ююз685497 0.9 10141722
18:00+13ююз48665 0.7 1014581
21:00+9ю41184100 0.7 1015269
23 апреля, пт
пт2300:00+8ю4128942 0.0 1015304
03:00+7ю513875 0.0 1014381
06:00+7ююв5138640 0.1 1014397
09:00+11ю714698 0.1 10131004
12:00+13юз81370100 0.7 10131829
15:00+6зюз2693100 5.7 1014447
18:00+6юв1190100 3.4 1014185
21:00+5вюв2393100 5.6 1013169
24 апреля, сб
сб2400:00+5з2695100 2.9 1011717
03:00+4зсз2791100 4.9 1010569
06:00+4зюз2694100 0.3 1009256
09:00+6з56725 0.8 1010900
12:00+8з575595 0.4 10091805
15:00+8з5650100 0.7 10091639
18:00+6з4669100 1.3 1009746
21:00+3з498577 1.8 1011329
25 апреля, вс
вс2500:00+1з511835 0.0 1012399
03:000зюз410915 0.0 1012339
06:000юз4109371 0.0 1013377
09:00+4зюз797026 0.1 10121188
12:00+6зюз7947100 0.4 10122236
15:00+7зюз7949100 0.5 10132231
18:00+5з596150 0.1 10131389
21:00+1юз36805 0.1 1014123
26 апреля, пн
пн2600:000ююз37894 0.0 1015155
03:00−1ююз39865 0.0 1015220
06:000юз38825 0.0 1014225
09:00+5юз465921 0.0 1013927
12:00+7юз4650100 0.9 10121837
15:00+8зюз454994 1.8 10111683
18:00+6зюз3566100 1.1 1010576
21:00+2з2280100 1.6 101017